OBJECT V

基本信息
目录编号:
57023
目录名称:
OBJECT V
国际标识:
2023-085V
轨道中心:
EARTH
物体状态:
在轨
发射日期:
2023-06-15 UTC
国别:
中国 (CN)
轨道信息
数据来源: 国际轨道数据
星历时间: 2026-09-04T06:28:12+0800
半长轴: 6837.291km
偏心率: 0.0006276
轨道倾角: 97.500°
近地点辐角: 140.404°
升交点赤经: 359.824°
平近点角: 219.766°
近地点: 454.862km
远地点: 463.446km
周期: 93.775分钟
每日圈数: 15.35595
详细信息
发射场:
TSC
轨道高度:
LEO
数据来源:
AOE Integration Group
参考系:
TEME
时间系统:
UTC
历元类型:
SGP4
2D轨道图
3D轨道图
轨道高度分析图
轨道倾角分析图
轨道综合分析图
查看轨道综合分析图